Weather History for KDEH - January, 2013

Change the Weather History Date:

Monday, January 28, 2013

  Actual Average Record
Temperature  
Mean Temperature 34 °F -  
Max Temperature 37 °F 23 °F 35 °F (2015)
Min Temperature 32 °F 5 °F -14 °F (2014)
Degree Days  
Heating Degree Days 30    
Moisture  
Dew Point 33 °F    
Average Humidity 100    
Maximum Humidity 100    
Minimum Humidity 100    
Precipitation  
Precipitation 0.05 in - - ()
Sea Level Pressure  
Sea Level Pressure 29.82 in    
Wind  
Wind Speed 3 mph (ESE)    
Max Wind Speed 14 mph    
Max Gust Speed 21 mph    
Visibility 1 miles    
Events Fog , Rain , Snow    
Averages and records for this station are not official NWS values.
T = Trace of Precipitation, MM = Missing Value Source: NWS Daily Summary

Daily Weather History Graph

Daily Weather History Graph

Search for Another Location

Airport or City:

Trip Planner

Search our weather history database for the weather conditions in past years. The results will help you decide how hot, cold, wet, or windy it might be!

Date:

Astronomy

Jan. 28, 2013 Rise Set
Actual Time 7:26 AM CST 5:14 PM CST
Civil Twilight 6:55 AM CST 5:44 PM CST
Nautical Twilight 6:21 AM CST 6:19 PM CST
Astronomical Twilight 5:47 AM CST 6:52 PM CST
Moon 7:13 PM CST (1/28) 7:48 AM CST (1/28)
Length of Visible Light 10h 48m
Length of Day
9h 47m
Full, 98% of the Moon is Illuminated
Jan 28
Full
Feb 3
Last Quarter
Feb 10
New
Feb 17
First Quarter
Feb 25
Full

Hourly Weather History & Observations

Time (CST) Temp. Windchill Dew Point Humidity Pressure Visibility Wind Dir Wind Speed Gust Speed Precip Events Conditions
12:15 AM 32.0 °F - 32.0 °F 100% 29.76 in 1.0 mi Calm Calm - N/A   Overcast
12:35 AM 32.0 °F - 32.0 °F 100% 29.77 in 2.0 mi Calm Calm - N/A   Overcast
12:55 AM 32.0 °F - 32.0 °F 100% 29.76 in 1.0 mi Calm Calm - N/A   Overcast
1:15 AM 32.0 °F - 32.0 °F 100% 29.77 in 0.8 mi Calm Calm - N/A   Overcast
1:35 AM 32.0 °F - 32.0 °F 100% 29.76 in 0.2 mi Calm Calm - N/A Fog Fog
1:55 AM 32.0 °F - 32.0 °F 100% 29.77 in 0.5 mi Calm Calm - 0.01 in   Mist
2:15 AM 32.0 °F - 32.0 °F 100% 29.76 in - Calm Calm - N/A   Overcast
2:35 AM 32.0 °F - 32.0 °F 100% 29.77 in 0.2 mi Calm Calm - N/A Fog Fog
2:55 AM 32.0 °F - 32.0 °F 100% 29.78 in 0.2 mi Calm Calm - N/A Fog Fog
3:15 AM 32.0 °F - 32.0 °F 100% 29.78 in 0.2 mi Calm Calm - N/A Fog Fog
3:35 AM 32.0 °F 27.5 °F 32.0 °F 100% 29.78 in 0.2 mi WNW 4.6 mph - N/A Fog Fog
3:55 AM 32.0 °F 28.7 °F 32.0 °F 100% 29.79 in 0.2 mi WNW 3.5 mph - N/A Fog Fog
4:15 AM 32.0 °F 28.7 °F 32.0 °F 100% 29.80 in 0.2 mi WNW 3.5 mph - N/A Fog Fog
4:35 AM 32.0 °F 28.7 °F 32.0 °F 100% 29.81 in 0.2 mi Variable 3.5 mph - N/A Fog Fog
4:55 AM 32.0 °F 28.7 °F 32.0 °F 100% 29.81 in 0.2 mi WNW 3.5 mph - N/A Fog Fog
5:15 AM 32.0 °F - 32.0 °F 100% 29.81 in 0.2 mi North - - N/A Fog Fog
5:35 AM 32.0 °F 27.5 °F 32.0 °F 100% 29.82 in 0.2 mi WNW 4.6 mph - N/A Fog Fog
5:55 AM 32.0 °F - 32.0 °F 100% 29.83 in 1.2 mi North - - N/A   Overcast
6:15 AM 32.0 °F 26.4 °F 32.0 °F 100% 29.84 in 2.5 mi NW 5.8 mph - N/A   Overcast
6:35 AM 32.0 °F 27.5 °F 32.0 °F 100% 29.85 in 2.5 mi WNW 4.6 mph - N/A   Overcast
6:55 AM - - - N/A% 29.85 in - North - - N/A   Unknown
7:15 AM 32.0 °F 28.7 °F 32.0 °F 100% 29.86 in 2.5 mi WNW 3.5 mph - N/A   Mist
7:35 AM 32.0 °F 25.6 °F 32.0 °F 100% 29.85 in 2.0 mi NNW 6.9 mph - N/A   Overcast
7:55 AM 32.0 °F 25.6 °F 32.0 °F 100% 29.87 in 2.0 mi NNW 6.9 mph - N/A   Overcast
8:15 AM 32.0 °F 26.4 °F 32.0 °F 100% 29.88 in 1.2 mi NNW 5.8 mph - N/A   Overcast
8:35 AM 32.0 °F - 32.0 °F 100% 29.89 in 0.2 mi Calm Calm - N/A Fog Fog
8:55 AM 32.0 °F - 32.0 °F 100% 29.89 in 0.2 mi Calm Calm - N/A Fog Fog
9:15 AM 32.0 °F - 32.0 °F 100% 29.90 in 0.2 mi Calm Calm - N/A Fog Fog
9:35 AM 32.0 °F - 32.0 °F 100% 29.90 in 0.2 mi Calm Calm - N/A Fog Fog
9:55 AM 32.0 °F - 32.0 °F 100% 29.90 in 0.2 mi Calm Calm - N/A Fog Fog
10:15 AM 32.0 °F - 32.0 °F 100% 29.90 in 0.2 mi Calm Calm - N/A Fog Light Freezing Fog
10:35 AM 32.0 °F 28.7 °F 32.0 °F 100% 29.90 in 0.2 mi ENE 3.5 mph - N/A Fog Light Freezing Fog
10:55 AM 32.0 °F - 32.0 °F 100% 29.91 in 0.2 mi Calm Calm - N/A Fog Light Freezing Fog
11:15 AM 32.0 °F 27.5 °F 32.0 °F 100% 29.90 in 0.2 mi South 4.6 mph - N/A Fog Fog
11:35 AM 32.0 °F - 32.0 °F 100% 29.90 in 0.2 mi Calm Calm - N/A Fog Fog
11:55 AM 32.0 °F - 32.0 °F 100% 29.90 in 0.2 mi Calm Calm - N/A Fog Light Freezing Fog
12:15 PM 32.0 °F - 32.0 °F 100% 29.89 in 0.2 mi Calm Calm - N/A Fog Fog
12:35 PM 32.0 °F - 32.0 °F 100% 29.88 in 0.2 mi Calm Calm - N/A Fog Fog
12:55 PM 32.0 °F - 32.0 °F 100% 29.87 in 0.2 mi Calm Calm - N/A Fog Light Freezing Fog
1:15 PM 32.0 °F - 32.0 °F 100% 29.87 in 0.2 mi Calm Calm - N/A Fog Light Freezing Fog
1:35 PM 32.0 °F - 32.0 °F 100% 29.85 in 0.2 mi Calm Calm - N/A Fog Light Freezing Fog
1:55 PM 32.0 °F 26.4 °F 32.0 °F 100% 29.86 in 0.2 mi South 5.8 mph - N/A Fog Light Freezing Fog
2:15 PM 32.0 °F 25.6 °F 32.0 °F 100% 29.87 in - SSE 6.9 mph - N/A   Overcast
2:35 PM 32.0 °F 26.4 °F 32.0 °F 100% 29.86 in 0.2 mi Variable 5.8 mph - N/A Fog Fog
2:55 PM 32.0 °F 26.4 °F 32.0 °F 100% 29.87 in 0.2 mi Variable 5.8 mph - N/A Fog Fog
3:15 PM 32.0 °F 24.8 °F 32.0 °F 100% 29.86 in 0.2 mi SSE 8.1 mph - N/A Fog Fog
3:35 PM 32.0 °F 25.6 °F 32.0 °F 100% 29.87 in 0.2 mi SSE 6.9 mph - N/A Fog Fog
3:55 PM 32.0 °F 25.6 °F 32.0 °F 100% 29.86 in 0.2 mi SE 6.9 mph - N/A Fog Fog
4:15 PM 32.0 °F 25.6 °F 32.0 °F 100% 29.85 in 0.2 mi Variable 6.9 mph - N/A Fog Fog
4:35 PM 32.0 °F 23.6 °F 32.0 °F 100% 29.84 in 0.2 mi ESE 10.4 mph - N/A Fog Fog
4:55 PM 32.0 °F 25.6 °F 32.0 °F 100% 29.84 in 0.2 mi East 6.9 mph - N/A Fog Fog
5:15 PM 32.0 °F 24.8 °F 32.0 °F 100% 29.84 in 0.2 mi ESE 8.1 mph - N/A Fog Fog
5:35 PM 32.0 °F 25.6 °F 32.0 °F 100% 29.84 in 0.2 mi ESE 6.9 mph - N/A Fog Fog
5:55 PM 32.0 °F 25.6 °F 32.0 °F 100% 29.83 in 0.2 mi ESE 6.9 mph - N/A Fog Fog
6:15 PM 32.0 °F 24.2 °F 32.0 °F 100% 29.83 in 0.2 mi ESE 9.2 mph - N/A   Overcast
6:35 PM 32.0 °F 22.5 °F 32.0 °F 100% 29.81 in 0.2 mi ESE 12.7 mph - N/A Rain Light Rain
6:55 PM 33.8 °F 25.3 °F 33.8 °F 100% 29.81 in 0.2 mi ESE 11.5 mph 17.3 mph N/A Rain Light Rain
7:15 PM 33.8 °F 26.4 °F 33.8 °F 100% 29.81 in 0.2 mi ESE 9.2 mph - N/A Fog Fog
7:35 PM 33.8 °F 26.4 °F 33.8 °F 100% 29.80 in 0.5 mi ESE 9.2 mph - N/A Rain Light Rain
7:55 PM 33.8 °F 24.8 °F 33.8 °F 100% 29.78 in 2.5 mi ESE 12.7 mph 18.4 mph N/A Rain Light Rain
8:15 PM 33.8 °F 25.3 °F 33.8 °F 100% 29.77 in 4.0 mi ESE 11.5 mph - N/A Rain Light Rain
8:35 PM 33.8 °F 25.8 °F 33.8 °F 100% 29.76 in 5.0 mi ESE 10.4 mph - N/A Snow Light Snow
8:55 PM - - - N/A% - - North - - N/A   Unknown
9:15 PM 35.6 °F 27.5 °F 35.6 °F 100% 29.72 in 6.0 mi ESE 11.5 mph - N/A Rain Light Rain
9:35 PM 35.6 °F - 35.6 °F 100% 29.71 in 5.0 mi North - - N/A Rain Light Rain
9:55 PM 35.6 °F 28.0 °F 35.6 °F 100% 29.69 in 1.2 mi ESE 10.4 mph 17.3 mph N/A Rain Light Rain
10:15 PM 35.6 °F 27.1 °F 35.6 °F 100% 29.66 in 0.5 mi ESE 12.7 mph 18.4 mph N/A Rain Light Rain
10:55 PM 37.4 °F 29.8 °F 37.4 °F 100% 29.65 in 0.2 mi ESE 11.5 mph 19.6 mph N/A Rain Light Rain
11:15 PM 37.4 °F 30.8 °F 37.4 °F 100% 29.65 in 0.2 mi SSE 9.2 mph - N/A Fog Fog
11:35 PM 37.4 °F 28.9 °F 37.4 °F 100% 29.63 in 0.2 mi SE 13.8 mph 20.7 mph N/A Rain Light Rain
11:55 PM 37.4 °F - 37.4 °F 100% - 1.2 mi North - - 0.04 in   Mist